Simultaneous Nadir Overpasses (SNOs) Predictions

Prediction of SNOs between GOES-16 and NOAA-20 Satellite Orbit:

Table of predicted SNOs for the next 14.0 days since TLE Epoch: 2/8/2019
Index Date Time (GOES-16) GOES-16 Lat,Lon NOAA-20 Lat,Lon Distance(km) Time Diff (sec)
1 02/10/2019 06:45:03 -0.00, -75.19 0.98, -79.49 490.56 80
2 02/11/2019 06:23:40 -0.01, -75.20 -0.07, -74.97 26.34 80
3 02/13/2019 18:26:53 -0.00, -75.21 -0.12, -75.74 59.51 80
4 02/14/2019 18:10:48 -0.01, -75.22 0.87, -71.20 457.66 80
5 02/16/2019 06:32:37 0.01, -75.23 0.28, -76.48 141.92 80
6 02/17/2019 06:11:13 0.00, -75.24 -0.71, -71.94 375.22 80
7 02/18/2019 18:33:10 -0.00, -75.25 -0.46, -77.25 227.47 80
8 02/19/2019 18:17:07 0.00, -75.27 0.59, -72.72 290.20 80
9 02/21/2019 06:38:55 -0.00, -75.29 0.62, -77.99 308.12 80
10 02/22/2019 06:17:32 -0.00, -75.30 -0.43, -73.46 209.99 80




NCC Satellite Simultaneous Nadir Overpasses (SNOs) Prediction Service
